Wind_Speed
61 60 61 65 69 71 75 74 80 78 79 85 83 83 84 88 86 90 95 92 96 94 96 103 104 110 116 122 120 117 118 123 122 122 117 116 115 101 99 104 107 109 115 101
63 64 65 67 73 74 71 80 85 86 88 90 87 88 92 93 92 91 96 104 100 100 105 112 113 120 121 122 123 129 131 130 127 118 124 115 105 102 105 109 113 114 121 102
71 71 72 74 76 75 78 79 84 89 90 91 91 94 97 95 100 103 105 107 108 115 113 117 123 125 129 128 132 135 135 134 134 127 116 117 109 108 109 117 121 122 115 116
80 87 80 76 80 84 83 80 84 89 91 92 96 100 104 107 108 113 110 113 114 120 125 129 131 131 133 132 138 143 142 141 139 127 117 109 107 108 113 118 123 122 120 122
87 86 83 88 88 89 91 94 93 99 99 106 106 108 113 115 115 116 120 124 123 131 131 132 135 137 140 142 144 145 147 146 139 126 117 112 105 112 108 112 118 120 121 117
97 94 91 94 94 93 100 101 106 112 108 117 117 119 111 112 115 120 129 135 139 137 136 141 141 145 145 144 147 149 148 144 137 116 107 106 107 113 114 112 109 103 96 93
99 103 102 97 103 99 104 101 105 114 120 125 122 118 118 128 133 133 132 140 143 145 150 149 150 148 148 150 147 149 142 137 122 113 112 108 112 110 106 100 95 88 82 77
102 99 104 106 114 122 122 117 119 120 121 129 135 138 141 139 141 143 147 148 153 152 150 154 153 154 153 153 148 138 126 117 116 114 111 107 107 99 93 89 83 77 72 67
103 105 108 116 112 113 119 122 127 132 134 137 139 141 143 143 149 149 152 150 153 156 157 156 158 159 155 140 125 113 115 120 117 110 102 97 89 85 81 76 70 66 61 56
117 117 118 120 123 125 126 129 127 130 135 140 140 140 140 148 152 150 151 154 154 158 161 165 151 142 126 118 117 117 113 106 100 93 87 83 76 73 68 63 59 55 49 46
123 125 125 127 126 126 131 133 137 134 140 144 144 145 150 154 152 156 154 160 158 164 150 137 127 120 123 118 111 105 92 87 82 77 74 71 66 62 58 53 48 43 41 39
129 130 128 130 135 136 138 139 145 144 144 148 147 152 158 159 160 158 160 166 147 133 125 121 120 117 111 101 92 86 79 74 68 64 62 60 56 53 47 43 40 36 34 32
133 134 138 140 141 143 146 148 150 153 159 160 162 164 163 159 160 144 139 130 125 125 123 115 105 95 88 83 76 72 67 62 58 55 53 48 45 42 39 35 31 31 29 27
139 139 139 143 146 149 150 150 156 158 160 157 150 145 143 135 125 122 123 122 116 109 100 93 84 77 73 68 64 60 56 53 48 45 40 38 36 33 31 27 24 25 25 24
140 137 141 147 148 150 152 156 146 139 132 123 119 117 118 118 115 109 103 97 90 84 78 73 69 65 60 56 52 49 46 42 37 34 31 29 28 26 23 23 21 20 21 22
136 136 134 133 130 126 123 117 110 110 111 111 106 100 96 92 88 84 80 75 70 67 64 61 57 52 49 46 43 39 36 32 29 27 25 23 24 22 19 18 20 21 24 27
91 94 97 98 99 99 99 98 96 91 87 83 80 79 76 73 69 66 64 61 59 55 53 49 47 43 40 37 34 31 26 23 19 19 19 19 20 19 19 20 22 25 27 29
81 82 82 79 77 77 75 74 73 71 70 67 65 63 61 58 57 55 52 50 47 45 43 41 38 35 33 32 29 25 22 19 16 15 16 18 19 19 20 22 25 28 29 29
64 63 63 63 64 65 65 64 61 57 56 54 52 50 48 47 46 43 42 39 37 36 34 32 31 29 28 26 23 22 21 18 17 17 18 18 20 22 24 27 29 28 27 26
58 59 60 62 61 59 56 51 48 44 40 38 37 36 35 36 34 33 33 31 30 29 28 27 26 24 22 21 21 19 19 18 18 17 18 19 21 23 23 24 25 26 24 21
53 53 53 51 49 47 45 43 41 38 36 33 31 29 28 27 27 27 26 24 23 22 22 20 21 20 19 19 18 17 17 17 17 17 17 18 16 17 18 20 23 24 24 22
42 42 42 42 42 40 38 36 34 33 32 30 28 26 25 24 23 21 21 19 18 18 18 16 17 18 17 17 17 17 17 17 18 18 18 19 19 19 19 20 21 21 23 23
37 37 37 37 36 35 34 33 31 30 29 28 27 26 26 26 25 24 22 20 19 18 18 16 15 16 16 16 16 17 17 18 19 20 20 20 21 21 21 21 23 23 22 23
34 34 33 33 32 32 31 30 30 30 29 29 28 28 28 26 26 25 24 25 24 23 23 22 21 19 18 17 17 17 17 17 18 19 20 20 21 20 22 23 23 23 23 23
29 29 29 29 29 28 28 28 28 28 29 28 28 29 29 29 29 28 27 28 28 28 27 27 28 28 27 26 25 24 22 22 21 21 22 20 21 20 20 21 22 22 22 22
25 26 26 26 27 26 26 25 26 26 27 28 29 28 28 29 31 31 30 32 32 31 32 31 33 33 32 32 32 31 30 29 29 28 28 27 26 25 25 23 23 23 24 23
24 24 25 26 26 28 28 27 26 26 26 27 28 28 27 28 32 32 31 33 33 33 35 35 34 35 36 36 37 37 36 35 34 33 33 33 32 31 30 29 26 26 25 25
Wind_Direction
266 272 270 272 272 277 281 277 279 283 285 285 286 284 284 289 284 285 287 294 298 296 296 300 301 302 303 304 305 305 306 309 312 314 311 309 311 305 302 302 303 302 303 305
268 268 269 272 270 277 281 283 284 285 285 285 282 284 286 288 289 290 290 295 296 296 299 300 300 301 303 304 305 305 308 309 311 311 310 308 305 300 301 302 301 304 298 303
266 268 273 275 274 277 277 279 279 281 281 281 280 283 285 285 288 290 291 292 294 295 296 297 298 300 301 304 303 305 307 308 308 309 309 306 304 301 299 296 299 297 299 298
266 269 269 273 272 276 275 276 277 276 278 277 279 282 283 284 287 288 289 291 292 293 297 299 302 302 303 303 304 306 308 309 308 306 304 299 300 298 296 298 297 297 297 295
264 262 263 265 268 269 273 274 278 277 279 280 279 281 286 284 286 286 290 292 293 296 299 297 300 300 301 302 305 304 305 306 304 304 300 299 299 293 294 293 294 295 293 292
265 266 266 267 266 270 272 269 271 277 280 285 287 288 288 289 289 289 292 293 294 295 295 296 298 300 301 302 302 304 304 302 301 302 300 299 298 297 297 294 293 292 291 294
266 268 268 270 269 268 269 270 272 275 274 282 286 285 284 285 290 292 293 295 297 295 296 296 298 300 300 301 301 301 300 300 299 301 300 300 299 296 295 296 294 295 296 295
266 268 268 267 270 274 275 274 274 274 275 278 280 281 284 287 291 292 294 295 295 295 295 298 298 299 299 299 299 300 299 300 301 301 301 300 296 298 297 295 295 295 295 296
262 264 267 271 269 268 269 271 274 276 278 281 284 286 287 288 289 291 292 294 297 297 297 297 297 298 298 299 300 298 299 299 300 300 298 294 294 293 292 293 293 293 294 294
262 264 268 270 272 274 276 278 280 283 286 287 288 286 287 288 291 294 295 295 295 295 295 297 298 299 299 298 300 299 300 298 298 296 293 292 292 291 292 292 293 292 292 291
259 264 269 270 271 275 278 281 281 281 282 284 287 286 287 290 292 292 292 292 292 298 297 298 297 297 298 298 299 298 299 297 294 293 291 290 292 291 290 292 290 288 286 286
262 264 266 269 273 274 277 281 281 281 285 286 287 287 287 288 290 291 290 293 296 295 296 296 297 298 298 298 298 297 296 294 293 290 289 289 289 288 291 287 286 283 282 281
263 265 268 270 273 276 277 278 280 280 282 283 285 286 286 287 288 290 292 293 292 294 295 295 297 298 298 295 295 295 294 292 290 289 288 289 287 286 285 283 282 281 278 277
263 266 269 271 272 274 276 279 280 281 283 284 284 285 286 289 290 289 290 291 292 293 294 294 293 294 294 294 294 293 291 290 290 291 290 285 283 282 279 278 275 276 274 272
263 265 268 270 273 274 276 280 279 279 279 284 286 288 288 287 288 288 290 291 291 290 291 292 294 295 295 295 294 292 291 293 291 288 284 280 279 276 276 274 272 267 264 261
266 268 270 272 271 272 273 277 281 284 285 285 286 287 287 288 288 288 288 289 290 291 293 294 295 296 296 297 294 292 289 288 287 285 284 280 278 276 271 266 265 259 254 259
261 263 266 269 273 276 279 280 282 283 284 285 286 286 286 287 288 289 289 290 291 293 294 295 295 296 296 295 292 289 290 288 286 287 279 274 273 272 266 261 257 259 262 262
270 272 274 275 277 279 282 285 287 289 289 288 288 288 288 289 288 288 289 291 292 292 293 293 294 294 295 293 294 292 288 282 273 265 267 269 266 261 258 258 259 262 268 274
273 276 279 281 283 283 281 283 286 289 290 290 290 289 288 288 289 290 290 290 291 292 293 293 294 297 294 295 291 288 285 279 275 268 266 266 264 265 264 268 271 276 281 281
281 282 282 282 280 280 279 281 283 285 287 287 287 288 289 291 293 295 298 297 296 297 297 298 296 296 294 295 291 291 291 288 281 277 276 273 272 273 277 281 281 278 277 276
281 281 282 284 285 286 287 289 290 294 297 301 303 304 304 304 303 302 301 300 300 299 299 300 298 297 294 291 291 292 292 294 296 296 291 282 276 273 273 272 276 281 284 284
287 290 291 293 294 294 293 293 293 294 295 297 299 302 305 308 309 311 312 312 311 309 308 307 304 303 301 301 300 296 294 293 292 290 289 287 286 282 279 276 274 273 274 275
297 298 299 301 302 301 302 300 299 298 298 299 302 304 305 306 307 310 311 312 313 315 314 316 313 309 304 302 302 302 302 302 301 300 297 294 293 292 291 287 284 284 279 272
300 303 305 306 307 308 310 310 310 311 310 311 311 310 310 309 309 309 308 309 310 310 308 306 305 304 303 303 303 303 301 298 296 294 293 294 293 291 289 289 287 284 283 284
304 307 309 311 313 315 313 313 313 312 310 309 310 310 311 310 309 309 308 306 307 305 304 301 299 298 298 297 296 294 292 291 289 288 287 286 288 289 287 286 286 285 282 277
312 314 317 317 318 320 320 320 320 318 317 315 313 311 307 305 302 303 304 302 304 301 300 299 298 297 296 294 292 291 289 288 287 287 287 289 289 290 290 289 288 288 286 281
321 321 320 322 324 323 324 324 323 320 316 314 311 310 309 306 304 303 303 300 300 298 298 298 295 292 292 291 290 291 291 290 288 287 285 284 284 284 283 282 282 281 282 282
Height
10591 10590 10591 10591 10590 10588 10581 10577 10572 10576 10575 10569 10566 10564 10558 10555 10551 10547 10542 10535 10532 10528 10522 10515 10506 10497 10492 10485 10475 10465 10459 10452 10453 10442 10419 10411 10399 10386 10377 10363 10354 10347 10324 10334
10575 10575 10575 10576 10575 10571 10568 10562 10556 10558 10554 10549 10545 10543 10535 10532 10527 10523 10520 10514 10509 10503 10496 10487 10485 10476 10468 10457 10444 10436 10431 10423 10421 10431 10393 10389 10382 10365 10354 10337 10320 10321 10295 10314
10558 10559 10559 10559 10557 10556 10552 10549 10542 10539 10537 10533 10528 10521 10517 10513 10509 10504 10499 10491 10486 10482 10475 10468 10461 10451 10444 10432 10418 10407 10403 10400 10393 10386 10385 10350 10356 10342 10333 10311 10304 10285 10285 10266
10543 10545 10545 10543 10540 10540 10535 10533 10526 10523 10519 10516 10510 10505 10499 10494 10488 10483 10477 10471 10465 10459 10451 10439 10430 10421 10410 10402 10389 10374 10365 10361 10353 10351 10347 10338 10329 10323 10305 10285 10270 10254 10251 10240
10523 10524 10522 10524 10524 10522 10520 10517 10510 10504 10502 10497 10489 10486 10485 10473 10464 10460 10454 10447 10437 10430 10421 10413 10407 10397 10385 10376 10359 10345 10336 10330 10317 10325 10310 10299 10303 10285 10279 10269 10249 10230 10210 10201
10503 10504 10504 10504 10503 10503 10497 10498 10494 10487 10480 10474 10466 10462 10454 10447 10441 10437 10429 10423 10415 10406 10395 10387 10378 10369 10359 10350 10337 10316 10310 10295 10285 10293 10282 10272 10266 10243 10236 10227 10215 10204 10196 10180
10482 10483 10484 10485 10476 10480 10475 10476 10472 10468 10460 10452 10444 10439 10434 10428 10419 10408 10401 10394 10384 10375 10363 10356 10346 10338 10330 10319 10306 10293 10281 10264 10254 10253 10249 10245 10224 10209 10200 10191 10179 10175 10167 10161
10461 10460 10459 10462 10457 10454 10452 10451 10449 10444 10437 10431 10422 10414 10409 10401 10392 10382 10371 10364 10354 10341 10332 10326 10315 10304 10294 10286 10275 10260 10249 10235 10223 10222 10213 10205 10183 10175 10168 10162 10155 10150 10145 10141
10438 10437 10436 10433 10431 10429 10425 10423 10419 10416 10410 10404 10396 10387 10380 10373 10365 10355 10342 10332 10320 10309 10298 10286 10276 10270 10263 10250 10246 10232 10222 10208 10198 10192 10180 10171 10161 10153 10147 10142 10137 10131 10128 10124
10420 10417 10414 10410 10405 10402 10399 10394 10390 10384 10378 10371 10362 10355 10347 10337 10327 10320 10309 10296 10286 10273 10264 10257 10246 10237 10229 10222 10214 10202 10193 10181 10169 10158 10149 10141 10141 10132 10128 10124 10122 10117 10113 10108
10396 10397 10394 10389 10382 10376 10372 10365 10360 10359 10352 10343 10337 10327 10319 10306 10296 10286 10276 10262 10250 10243 10233 10226 10215 10209 10195 10193 10183 10171 10166 10155 10145 10139 10128 10121 10118 10113 10110 10110 10106 10102 10098 10095
10377 10374 10372 10369 10361 10356 10349 10342 10337 10327 10321 10313 10303 10293 10286 10276 10265 10253 10240 10230 10224 10215 10203 10195 10183 10176 10169 10161 10154 10141 10137 10129 10123 10117 10110 10104 10101 10096 10097 10094 10092 10090 10087 10086
10354 10347 10346 10344 10340 10332 10323 10317 10310 10302 10293 10279 10272 10264 10253 10244 10234 10221 10215 10202 10194 10185 10176 10166 10158 10152 10146 10135 10129 10120 10114 10108 10103 10098 10093 10091 10087 10084 10083 10081 10080 10077 10076 10076
10332 10328 10324 10318 10311 10304 10297 10291 10279 10270 10260 10249 10240 10233 10220 10212 10204 10194 10185 10176 10168 10161 10152 10144 10135 10130 10124 10116 10108 10102 10095 10090 10087 10084 10081 10077 10074 10073 10071 10071 10070 10068 10067 10067
10306 10302 10296 10288 10282 10277 10269 10262 10248 10237 10232 10220 10212 10201 10192 10184 10176 10166 10159 10153 10145 10136 10129 10122 10116 10111 10104 10097 10091 10085 10080 10077 10074 10071 10068 10066 10064 10063 10061 10060 10060 10059 10058 10058
10284 10280 10275 10266 10253 10244 10236 10228 10222 10211 10203 10196 10185 10176 10166 10158 10151 10144 10136 10129 10124 10118 10111 10105 10100 10093 10086 10081 10076 10071 10068 10066 10063 10061 10059 10057 10055 10054 10053 10052 10051 10050 10050 10049
10253 10249 10245 10238 10231 10224 10216 10206 10197 10190 10180 10171 10162 10151 10144 10137 10130 10124 10118 10112 10107 10101 10096 10090 10084 10079 10074 10070 10065 10061 10059 10056 10055 10051 10050 10049 10047 10046 10045 10045 10044 10043 10042 10041
10235 10231 10224 10216 10208 10200 10191 10182 10174 10166 10157 10149 10140 10132 10125 10119 10113 10108 10103 10098 10093 10088 10083 10077 10072 10067 10064 10060 10056 10052 10050 10048 10047 10045 10043 10042 10041 10040 10039 10037 10036 10035 10034 10034
10214 10207 10201 10195 10189 10183 10175 10167 10158 10149 10139 10131 10124 10118 10112 10105 10100 10096 10091 10086 10081 10076 10071 10067 10063 10059 10055 10051 10049 10046 10044 10042 10040 10039 10037 10036 10034 10033 10032 10031 10030 10029 10029 10028
10195 10190 10185 10178 10172 10165 10159 10152 10145 10137 10129 10120 10114 10107 10101 10095 10090 10084 10080 10075 10071 10066 10062 10058 10055 10052 10048 10045 10042 10040 10038 10036 10035 10033 10032 10030 10029 10027 10026 10025 10023 10021 10021 10020
10180 10174 10168 10162 10155 10148 10142 10135 10129 10123 10116 10109 10102 10096 10091 10085 10081 10077 10072 10068 10063 10059 10055 10052 10048 10044 10042 10039 10036 10034 10032 10030 10029 10027 10025 10024 10023 10021 10019 10017 10015 10013 10012 10011
10166 10160 10154 10148 10141 10136 10130 10124 10118 10112 10107 10101 10095 10090 10084 10079 10074 10070 10065 10062 10058 10054 10050 10047 10043 10039 10037 10034 10032 10030 10027 10025 10023 10021 10019 10017 10015 10014 10011 10010 10008 10007 10005 10004
10153 10148 10143 10138 10131 10126 10119 10114 10108 10103 10098 10093 10087 10082 10078 10073 10068 10064 10060 10057 10053 10049 10045 10042 10040 10037 10034 10031 10028 10025 10022 10019 10016 10014 10012 10011 10009 10006 10004 10003 10001 10000 9999 9998
10144 10139 10134 10128 10123 10117 10111 10105 10100 10095 10090 10085 10080 10075 10071 10066 10062 10058 10053 10049 10045 10042 10039 10036 10033 10031 10028 10025 10022 10020 10017 10014 10011 10009 10006 10004 10002 10000 9998 9995 9994 9992 9991 9990
10137 10131 10126 10120 10114 10110 10105 10100 10094 10089 10084 10079 10074 10069 10064 10059 10055 10050 10046 10042 10038 10035 10032 10029 10025 10022 10019 10016 10014 10011 10009 10006 10004 10002 9999 9997 9994 9992 9991 9988 9986 9984 9982 9981
10130 10124 10119 10114 10108 10103 10099 10094 10089 10083 10078 10072 10068 10063 10058 10053 10048 10044 10040 10034 10031 10028 10024 10020 10016 10013 10010 10007 10004 10001 9999 9997 9995 9993 9990 9988 9986 9984 9982 9980 9978 9976 9973 9972
10124 10119 10113 10108 10102 10096 10091 10086 10082 10077 10072 10066 10061 10055 10051 10046 10039 10035 10032 10026 10023 10019 10015 10011 10008 10004 10000 9997 9994 9991 9988 9986 9984 9981 9979 9977 9974 9973 9971 9969 9969 9967 9965 9963